This is the latest recevied weather packets stored in our database for station/object K5OLV. If no packets are shown the sender has not sent any weather packets the latest 1 day(s).
| Time | Temp. | Humidity | Pressure | Rain* | Wind** | Luminosity | Snow |
|---|---|---|---|---|---|---|---|
| 1778003720 | 23.33° C | 48% | 1012.2 hPa | 0 mm | 1.34 m/s, 235° | 678 W/m² | - |
| 1778003418 | 23.33° C | 48% | 1012 hPa | 0 mm | 2.24 m/s, 262° | 702 W/m² | - |
| 1778003115 | 23.89° C | 50% | 1012 hPa | 0 mm | 0.89 m/s, 120° | 669 W/m² | - |
| 1778002811 | 23.89° C | 49% | 1012.2 hPa | 0 mm | 0.89 m/s, 312° | 658 W/m² | - |
| 1778002507 | 23.33° C | 50% | 1011.9 hPa | 0 mm | 0 m/s | 680 W/m² | - |
| 1778002204 | 22.78° C | 49% | 1012.1 hPa | 0 mm | 1.79 m/s, 189° | 695 W/m² | - |
| 1778001902 | 23.89° C | 47% | 1012.1 hPa | 0 mm | 1.34 m/s, 293° | 655 W/m² | - |
| 1778001597 | 23.33° C | 48% | 1012.2 hPa | 0 mm | 0.89 m/s, 297° | 686 W/m² | - |
| 1778001293 | 23.33° C | 50% | 1012.6 hPa | 0 mm | 1.34 m/s, 107° | 657 W/m² | - |
| 1778000990 | 23.33° C | 49% | 1012.5 hPa | 0 mm | 1.34 m/s, 133° | 667 W/m² | - |
| 1778000687 | 22.78° C | 50% | 1012.8 hPa | 0 mm | 1.34 m/s, 219° | 683 W/m² | - |
| 1778000382 | 22.78° C | 50% | 1012.7 hPa | 0 mm | 0.89 m/s, 210° | 728 W/m² | - |
| 1778000078 | 23.33° C | 51% | 1012.5 hPa | 0 mm | 0.89 m/s, 308° | 703 W/m² | - |
| 1777999774 | 22.22° C | 50% | 1012.8 hPa | 0 mm | 0.45 m/s, 161° | 766 W/m² | - |
| 1777999471 | 22.22° C | 51% | 1012.6 hPa | 0 mm | 1.34 m/s, 166° | 723 W/m² | - |
| 1777999169 | 21.67° C | 51% | 1012.8 hPa | 0 mm | 0.89 m/s, 318° | 690 W/m² | - |
| 1777998867 | 21.67° C | 52% | 1013 hPa | 0 mm | 1.34 m/s, 106° | 551 W/m² | - |
| 1777998566 | 21.67° C | 51% | 1012.7 hPa | 0 mm | 2.68 m/s, 328° | 619 W/m² | - |
| 1777998261 | 21.11° C | 54% | 1012.7 hPa | 0 mm | 0.45 m/s, 298° | 734 W/m² | - |
| 1777997958 | 22.22° C | 53% | 1012.8 hPa | 0 mm | 1.79 m/s, 202° | 734 W/m² | - |
| 1777997655 | 20.56° C | 57% | 1012.9 hPa | 0 mm | 0.89 m/s, 26° | 725 W/m² | - |
| 1777997353 | 21.67° C | 57% | 1013 hPa | 0 mm | 1.34 m/s, 294° | 727 W/m² | - |
| 1777997051 | 22.22° C | 58% | 1012.9 hPa | 0 mm | 1.34 m/s, 295° | 762 W/m² | - |
| 1777996747 | 20.56° C | 59% | 1012.8 hPa | 0 mm | 1.79 m/s, 187° | 747 W/m² | - |
| 1777996443 | 20.56° C | 60% | 1012.8 hPa | 0 mm | 0.45 m/s, 301° | 732 W/m² | - |
* Rain latest hour (hover to see other rain measurements)
** Current wind speed in m/s (hover to see current wind gust speed)